{"data":{"norad_id":65105,"intl_designator":"2025-167AD","name":"STARLINK-34545","alt_names":[],"object_type":"PAYLOAD","status":"ACTIVE","operator":null,"country":"US","launch_date":"2025-08-04","launch_site_code":"AFETR","launch_vehicle":null,"mission":null,"orbit_class":"UNKNOWN","rcs_meters":null,"size_class":null,"mass_kg":null,"dimensions":null,"purposes":["comms"],"wikipedia_slug":null,"has_3d_model":false,"image_url":null,"decayed_at":null,"tle_current":{"epoch":"2026-05-25T01:43:45.476832Z","epoch_age_seconds":79387,"freshness":"FRESH","line1":"1 65105U 25167AD  26145.07205413  .00001870  00000+0  52379-4 0  9993","line2":"2 65105  53.1603  29.0749 0000424  67.2336 292.8714 15.42169541 45218","mean_motion":15.42169541,"eccentricity":4.24e-5,"inclination_deg":53.1603,"raan_deg":29.0749,"arg_perigee_deg":67.2336,"mean_anomaly_deg":292.8714,"bstar":5.2379e-5,"rev_number":4521,"period_min":93.374947547353,"perigee_km":439.41845679528,"apogee_km":439.99661001171,"semimajor_km":6817.8445334035,"source":"CELESTRAK","updated_at":"2026-05-25T13:38:20.688232Z"}}}